Date String (YYYY-MM-DD hh:mm:ss) UTC,Instrument flags,Ambient pressure (hPa),Sample flow (lpm),Bypass flow (lpm),Sample temperature (°C),Ambient temperature (°C),ASC tube jacket temperature (°C),LED temperature (°C),Box temperature (°C),Sample RH (%),Span deviation,Mass concentration (μg/m³),Mass concentration (μg/m³),Mass concentration (μg/m³)
DateTimeUTC,F1_M11,P_M11,Q1_M11,Q2_M11,T1_M11,T2_M11,T3_M11,T4_M11,T5_M11,U1_M11,ZSPAN_M11,X0_M11,X2_M11,X1_M11
2022-01-28 06:00:00,,0834.9,5.02,0.00,21.9,21.6,00.0,30.9,23.5,08.3,0000.0,0006.12,0004.06,0003.85
2022-01-28 06:01:00,,0834.8,4.99,0.00,21.8,21.3,00.0,30.9,23.4,08.3,0000.0,0006.11,0004.06,0003.85
2022-01-28 06:02:00,,0834.9,5.00,0.00,21.7,21.1,00.0,30.8,23.2,08.4,0000.0,0006.07,0004.05,0003.84
2022-01-28 06:03:00,,0834.8,5.01,0.00,21.7,20.9,00.0,30.8,23.2,08.4,0000.0,0005.89,0004.04,0003.83
2022-01-28 06:04:00,,0834.8,5.01,0.00,21.7,21.2,00.0,30.8,23.2,08.4,0000.0,0006.56,0004.05,0003.83
2022-01-28 06:05:00,,0834.8,5.00,0.00,21.8,22.0,00.0,30.8,23.5,08.3,0000.0,0007.51,0004.06,0003.82
2022-01-28 06:06:00,,0834.8,4.99,0.00,21.9,22.6,00.0,30.9,23.8,08.2,0000.0,0007.50,0004.04,0003.82
2022-01-28 06:07:00,,0834.8,5.02,0.00,22.1,22.9,00.0,30.9,24.0,08.2,0000.0,0007.46,0004.03,0003.82
2022-01-28 06:08:00,,0834.7,4.99,0.00,22.1,22.5,00.0,30.9,23.9,08.2,0000.0,0007.36,0003.99,0003.80
2022-01-28 06:09:00,,0834.7,5.00,0.00,22.0,22.1,00.0,30.9,23.7,08.3,0000.0,0007.23,0003.95,0003.78
2022-01-28 06:10:00,,0834.7,5.02,0.00,22.0,21.8,00.0,30.9,23.6,08.3,0000.0,0007.20,0003.94,0003.77
2022-01-28 06:11:00,,0834.7,4.98,0.00,21.9,21.5,00.0,30.9,23.4,08.3,0000.0,0007.21,0003.94,0003.78
2022-01-28 06:12:00,,0834.7,5.01,0.00,21.8,21.3,00.0,30.9,23.3,08.3,0000.0,0007.14,0003.91,0003.76
2022-01-28 06:13:00,,0834.8,5.00,0.00,21.7,21.1,00.0,30.9,23.2,08.4,0000.0,0007.09,0003.89,0003.75
2022-01-28 06:14:00,,0834.7,5.01,0.00,21.7,20.9,00.0,30.8,23.2,08.5,0000.0,0007.06,0003.88,0003.74
2022-01-28 06:15:00,,0834.8,4.98,0.00,21.6,21.1,00.0,30.8,23.2,08.5,0000.0,0006.27,0003.86,0003.72
2022-01-28 06:16:00,,0834.8,5.02,0.00,21.8,21.9,00.0,30.8,23.5,08.4,0000.0,0005.09,0003.83,0003.70
2022-01-28 06:17:00,,0834.8,4.98,0.00,21.9,22.6,00.0,30.9,23.8,08.2,0000.0,0005.17,0003.83,0003.69
2022-01-28 06:18:00,,0834.8,5.01,0.00,22.1,23.0,00.0,30.9,24.0,08.1,0000.0,0005.12,0003.81,0003.66
2022-01-28 06:19:00,,0834.7,4.98,0.00,22.1,22.7,00.0,30.9,23.9,08.2,0000.0,0005.16,0003.82,0003.65
2022-01-28 06:20:00,,0834.7,5.00,0.00,22.0,22.3,00.0,31.0,23.8,08.2,0000.0,0005.18,0003.82,0003.65
2022-01-28 06:21:00,,0834.7,4.99,0.00,22.0,21.9,00.0,30.9,23.6,08.3,0000.0,0005.09,0003.79,0003.62
2022-01-28 06:22:00,,0834.7,5.01,0.00,21.9,21.6,00.0,30.9,23.5,08.4,0000.0,0005.00,0003.76,0003.60
2022-01-28 06:23:00,,0834.7,5.00,0.00,21.8,21.3,00.0,30.9,23.4,08.5,0000.0,0005.01,0003.75,0003.59
2022-01-28 06:24:00,,0834.7,4.99,0.00,21.8,21.1,00.0,30.9,23.3,08.4,0000.0,0005.15,0003.75,0003.58
2022-01-28 06:25:00,,0834.7,5.01,0.00,21.7,20.9,00.0,30.9,23.2,08.4,0000.0,0005.18,0003.75,0003.58
2022-01-28 06:26:00,,0834.7,4.99,0.00,21.7,21.3,00.0,30.9,23.3,08.4,0000.0,0005.19,0003.77,0003.59
2022-01-28 06:27:00,,0834.7,5.01,0.00,21.8,22.2,00.0,30.9,23.6,08.4,0000.0,0005.16,0003.78,0003.60
2022-01-28 06:28:00,,0834.7,5.00,0.00,22.0,22.9,00.0,30.9,23.9,08.4,0000.0,0005.02,0003.75,0003.59
2022-01-28 06:29:00,,0834.7,5.00,0.00,22.1,23.0,00.0,31.0,24.0,08.3,0000.0,0005.06,0003.76,0003.60
2022-01-28 06:30:00,,0834.7,5.01,0.00,22.1,22.6,00.0,31.0,23.9,08.3,0000.0,0005.16,0003.79,0003.61
2022-01-28 06:31:00,,0834.6,4.99,0.00,22.1,22.2,00.0,31.0,23.8,08.4,0000.0,0005.20,0003.81,0003.62
2022-01-28 06:32:00,,0834.7,4.99,0.00,22.0,21.9,00.0,30.9,23.6,08.4,0000.0,0005.28,0003.83,0003.63
2022-01-28 06:33:00,,0834.7,5.01,0.00,21.9,21.7,00.0,30.9,23.5,08.5,0000.0,0005.31,0003.84,0003.63
2022-01-28 06:34:00,,0834.7,5.01,0.00,21.9,21.4,00.0,30.9,23.5,08.4,0000.0,0005.50,0003.86,0003.64
2022-01-28 06:35:00,,0834.7,5.00,0.00,21.8,21.3,00.0,30.9,23.4,08.4,0000.0,0005.58,0003.85,0003.63
2022-01-28 06:36:00,,0834.7,4.99,0.00,21.8,21.1,00.0,30.9,23.3,08.4,0000.0,0005.59,0003.85,0003.63
2022-01-28 06:37:00,,0834.7,5.00,0.00,21.7,21.0,00.0,30.9,23.2,08.4,0000.0,0005.63,0003.86,0003.63
2022-01-28 06:38:00,,0834.7,5.01,0.00,21.8,21.6,00.0,30.9,23.4,08.4,0000.0,0005.63,0003.84,0003.62
2022-01-28 06:39:00,,0834.7,5.00,0.00,21.9,22.4,00.0,30.9,23.7,08.3,0000.0,0005.66,0003.86,0003.63
2022-01-28 06:40:00,,0834.7,4.99,0.00,22.1,23.0,00.0,31.0,24.0,08.2,0000.0,0005.82,0003.89,0003.64
2022-01-28 06:41:00,,0834.7,4.99,0.00,22.2,23.0,00.0,31.0,24.1,08.2,0000.0,0005.75,0003.87,0003.63
2022-01-28 06:42:00,,0834.7,5.01,0.00,22.2,22.6,00.0,31.0,24.0,08.2,0000.0,0005.69,0003.84,0003.61
2022-01-28 06:43:00,,0834.7,4.99,0.00,22.1,22.3,00.0,31.0,23.9,08.2,0000.0,0005.90,0003.86,0003.63
2022-01-28 06:44:00,,0834.7,4.99,0.00,22.1,22.0,00.0,31.0,23.8,08.3,0000.0,0005.90,0003.87,0003.64
2022-01-28 06:45:00,,0834.7,5.01,0.00,22.0,21.8,00.0,31.0,23.7,08.3,0000.0,0005.77,0003.86,0003.64
2022-01-28 06:46:00,,0834.7,5.01,0.00,22.0,21.6,00.0,31.0,23.6,08.4,0000.0,0005.48,0003.89,0003.66
2022-01-28 06:47:00,,0834.7,4.99,0.00,21.9,21.4,00.0,31.0,23.5,08.3,0000.0,0005.46,0003.90,0003.68
2022-01-28 06:48:00,,0834.7,5.00,0.00,21.9,21.3,00.0,30.9,23.4,08.3,0000.0,0005.52,0003.92,0003.69
2022-01-28 06:49:00,,0834.7,5.00,0.00,21.8,21.1,00.0,30.9,23.4,08.4,0000.0,0005.60,0003.95,0003.69
2022-01-28 06:50:00,,0834.7,5.00,0.00,21.8,21.2,00.0,30.9,23.4,08.4,0000.0,0005.65,0003.97,0003.71
2022-01-28 06:51:00,,0834.7,5.00,0.00,21.9,21.9,00.0,30.9,23.6,08.5,0000.0,0005.65,0003.99,0003.74
2022-01-28 06:52:00,,0834.7,5.01,0.00,22.0,22.7,00.0,31.0,23.9,08.4,0000.0,0005.71,0004.02,0003.77
2022-01-28 06:53:00,,0834.7,4.99,0.00,22.2,23.3,00.0,31.0,24.1,08.4,0000.0,0005.76,0004.06,0003.80
2022-01-28 06:54:00,,0834.7,5.01,0.00,22.3,23.1,00.0,31.0,24.2,08.3,0000.0,0005.62,0004.06,0003.82
2022-01-28 06:55:00,,0834.7,5.00,0.00,22.2,22.7,00.0,31.1,24.1,08.4,0000.0,0005.72,0004.08,0003.83
2022-01-28 06:56:00,,0834.6,5.00,0.00,22.2,22.4,00.0,31.1,24.0,08.3,0000.0,0005.79,0004.09,0003.84
2022-01-28 06:57:00,,0834.7,4.99,0.00,22.2,22.1,00.0,31.1,23.9,08.3,0000.0,0005.83,0004.09,0003.83
2022-01-28 06:58:00,,0834.7,5.01,0.00,22.1,21.8,00.0,31.0,23.8,08.3,0000.0,0005.88,0004.09,0003.83
2022-01-28 06:59:00,,0834.7,4.99,0.00,22.1,21.6,00.0,31.0,23.7,08.3,0000.0,0005.91,0004.10,0003.84
